Wind_Gust
5 4 4 2 3 2 5 5 6 8 4 8 9 8 18 6 13 10 10 12 14 14 14 17 20 19 19 22 24 16 14 5 3 10 10 11 10 17 20 21 20 19 17 13 11 12 13 16 19 20 21 23 23 22 22 23 24 22 22 21 20 18 17 17 17 17 17 17 18 18 18 18 18 17 16 15 14 13 13 15 16 16 17 17 19 18 18 21 21 19 19 19 19 20 19 18 17
3 5 5 3 2 3 5 6 8 2 4 6 21 3 11 6 7 10 9 4 9 17 16 21 24 27 26 23 19 16 22 15 7 11 15 19 20 19 18 21 22 22 16 15 12 12 11 15 18 20 21 23 23 24 22 23 23 23 23 21 20 19 17 17 17 17 17 17 18 19 19 18 17 16 16 14 12 12 11 13 16 16 16 17 16 17 18 20 20 19 19 19 20 20 20 16 16
4 7 8 7 4 4 4 4 6 4 5 11 16 12 7 14 6 9 9 9 16 14 15 15 15 14 16 11 23 13 8 8 18 18 20 17 21 17 20 17 15 20 18 14 13 10 11 14 18 20 23 21 22 22 22 23 23 23 23 22 21 19 18 18 17 17 17 17 18 18 18 18 17 17 16 15 13 12 11 11 14 14 16 16 15 16 17 18 21 20 20 19 18 19 18 15 14
3 2 3 4 5 4 6 5 7 10 7 14 17 9 8 8 15 13 9 11 18 15 11 11 17 15 17 26 22 17 15 12 13 16 21 18 20 23 24 22 21 13 14 12 9 8 8 14 17 20 22 21 21 22 23 23 23 23 23 21 21 20 18 17 17 17 17 18 18 18 18 17 17 16 16 15 13 12 12 11 10 12 12 13 15 14 14 17 19 20 19 18 18 19 17 14 13
3 1 4 4 7 5 5 7 6 9 12 13 12 8 7 8 8 8 5 4 3 11 13 16 20 10 18 15 5 9 7 12 15 12 25 23 20 25 23 21 20 13 14 12 11 10 11 15 17 18 20 22 21 22 22 23 22 22 22 22 21 20 19 18 18 18 18 18 18 17 17 17 17 17 17 16 15 15 15 15 14 13 13 14 14 13 14 16 17 17 18 17 16 16 16 14 12
3 4 1 5 6 5 5 4 6 6 17 7 8 13 3 15 14 9 6 6 9 14 14 10 15 9 17 14 13 12 11 12 16 15 22 11 23 25 23 19 16 16 14 13 12 11 12 16 17 19 20 22 21 21 22 22 22 21 21 21 20 20 19 18 18 18 19 18 18 17 17 17 16 17 17 17 16 15 15 15 15 14 14 15 15 16 18 18 15 15 15 16 15 14 14 11 10
5 7 5 2 7 5 9 5 7 10 22 8 17 17 9 16 22 6 5 9 16 18 20 24 27 20 22 12 16 16 9 15 16 13 13 18 14 21 21 17 18 18 17 14 11 11 12 15 18 18 19 21 21 21 21 21 21 21 21 20 20 19 20 19 18 18 18 18 17 17 16 16 16 17 17 16 16 16 14 13 15 15 15 14 16 17 17 15 14 14 14 14 15 14 13 11 6
1 6 4 6 6 3 4 4 10 11 14 12 9 10 11 16 12 6 5 6 11 16 7 16 12 22 6 5 15 15 21 18 23 22 20 18 14 13 15 18 17 16 16 13 12 12 18 15 18 18 18 19 21 21 21 22 21 21 21 20 20 19 19 19 18 17 16 17 17 16 16 16 16 16 16 16 17 16 16 16 15 15 15 16 17 17 16 16 16 15 15 15 14 13 12 12 7
3 4 5 8 3 4 3 9 15 11 13 13 18 16 16 15 19 10 3 3 9 12 15 17 19 20 11 18 16 13 18 19 20 20 18 18 15 12 16 14 20 19 16 14 13 12 12 15 18 18 19 19 21 22 21 21 21 21 21 20 19 17 17 17 18 17 14 14 14 15 15 15 15 15 14 15 16 16 16 16 15 16 16 16 16 17 17 16 15 14 14 14 13 12 11 10 7
3 5 3 7 7 4 4 14 6 12 8 12 15 21 17 14 14 19 8 4 13 14 5 3 7 19 19 23 20 11 16 17 21 19 15 16 15 13 11 12 17 23 18 15 13 13 12 20 18 18 18 19 20 20 20 19 20 20 19 19 18 17 17 16 16 15 14 14 13 13 13 13 13 12 12 14 15 15 15 15 15 16 16 16 16 16 15 15 14 14 13 13 13 11 10 9 8
6 4 4 3 2 5 9 14 8 16 14 12 15 22 23 18 15 5 6 7 14 16 10 19 22 24 18 13 12 13 14 17 23 19 15 17 16 14 11 13 16 19 21 17 14 13 14 15 22 18 18 18 18 18 17 18 18 18 18 18 18 18 17 16 16 16 14 13 13 13 12 13 13 13 14 14 14 14 14 14 14 16 16 15 15 15 15 16 14 13 13 12 11 9 6 4 6
4 3 3 3 7 8 10 7 9 15 15 11 21 16 8 13 5 3 5 12 10 19 15 9 20 27 17 15 12 12 11 14 17 16 17 17 16 9 7 14 14 16 19 18 14 13 13 14 15 21 19 18 18 18 17 18 18 18 18 18 18 17 16 16 16 15 15 14 13 12 12 12 13 13 13 13 11 12 13 14 13 14 15 16 15 14 14 15 15 13 13 11 10 8 6 5 4
5 2 2 4 8 2 11 7 13 11 14 15 11 13 10 11 6 4 6 10 5 7 7 5 29 9 13 10 14 10 14 8 12 14 14 15 12 9 12 14 14 17 17 16 16 14 13 11 14 14 18 22 18 17 18 17 17 17 17 17 16 17 17 16 16 15 14 14 13 12 11 11 12 13 13 13 12 12 12 13 14 13 14 15 15 14 14 14 14 13 12 10 9 7 6 4 4
10 9 7 7 3 5 12 9 7 8 14 13 11 9 11 8 6 7 9 11 6 7 5 21 20 25 19 18 14 12 12 9 14 12 15 14 16 20 14 13 16 16 16 17 16 14 12 11 12 13 16 14 15 17 17 18 17 16 15 15 15 15 15 15 15 14 14 14 14 13 12 12 12 12 12 12 11 11 10 12 13 14 14 14 13 14 14 13 13 12 11 10 8 7 6 4 3
10 5 4 6 9 5 9 10 7 7 16 12 12 7 10 7 6 3 12 15 6 11 17 8 22 20 20 22 15 20 18 15 14 15 16 20 21 17 17 18 13 10 14 15 14 14 13 12 12 12 11 12 12 11 12 16 17 16 15 14 14 14 14 15 15 14 14 12 12 12 13 13 13 13 12 12 11 11 12 11 12 12 13 13 13 13 13 13 12 12 10 9 9 7 5 4 4
12 4 6 5 9 5 17 7 5 2 16 4 10 7 8 5 4 4 4 11 10 5 8 11 7 7 18 15 25 25 20 19 18 18 22 23 21 15 18 15 12 10 10 12 12 11 12 12 11 11 11 10 9 9 11 11 15 17 15 14 15 14 15 15 14 13 15 13 13 13 13 12 11 12 14 12 12 11 9 6 11 11 12 12 13 13 13 12 11 10 10 8 7 7 5 6 6
3 5 6 9 16 6 12 8 3 8 12 11 15 6 8 7 8 3 7 10 18 6 7 7 4 9 25 10 25 24 21 19 18 21 21 19 20 17 16 14 14 12 9 6 7 8 9 11 10 11 10 11 11 10 10 10 14 16 14 16 15 15 14 16 14 15 14 13 12 10 8 7 6 6 8 7 12 8 8 9 11 11 11 11 11 11 11 11 11 10 8 7 7 7 6 6 7
4 8 9 10 13 11 12 13 4 7 16 16 18 7 6 3 7 6 13 20 15 13 14 13 19 18 19 24 27 26 23 22 20 22 19 18 16 17 14 13 12 17 14 8 6 8 9 9 10 10 10 10 11 11 9 9 11 13 9 11 11 14 15 15 15 12 13 9 12 11 8 7 6 6 6 10 7 8 9 10 10 10 10 10 10 10 11 10 10 9 9 8 7 6 6 1 5
8 6 9 18 10 18 3 5 7 9 12 18 14 13 4 2 2 5 12 8 15 19 15 20 24 21 22 24 25 25 25 21 20 20 21 19 19 18 16 13 11 11 10 10 10 7 8 8 8 10 9 9 9 7 8 8 8 8 8 10 11 11 13 14 9 12 8 10 8 9 8 8 6 5 4 8 7 8 8 10 10 10 10 10 10 10 11 11 9 10 9 9 7 5 2 3 5
8 9 13 16 7 9 8 5 10 7 9 14 8 10 7 2 3 3 4 8 14 20 20 14 23 21 23 22 23 23 22 21 21 21 20 18 16 18 18 14 13 12 15 15 7 6 7 9 8 9 11 10 10 9 8 8 7 7 9 8 9 8 9 9 8 9 9 8 9 8 8 7 5 4 10 13 11 7 7 9 10 10 9 9 9 8 9 9 11 10 10 10 6 4 2 3 6
8 9 13 11 8 11 10 5 9 9 7 5 5 7 9 15 6 5 4 11 8 13 21 26 25 26 23 23 23 20 20 20 18 19 18 18 14 13 16 16 16 15 15 18 12 5 5 7 9 9 10 10 10 10 10 10 9 8 8 9 9 8 8 8 9 8 7 7 7 6 6 5 5 4 4 4 7 6 5 6 7 6 5 4 7 4 3 4 6 3 5 6 4 4 3 6 4
5 11 12 14 11 10 16 14 12 9 11 4 2 6 8 11 10 7 2 3 12 17 13 24 32 31 31 26 20 19 17 16 15 15 16 18 18 17 15 15 14 13 11 16 13 8 6 7 10 9 10 9 10 11 11 11 12 9 8 9 9 7 8 8 7 8 8 8 7 6 6 6 6 6 5 4 2 6 7 7 7 7 5 5 5 6 5 4 4 5 6 5 6 5 6 7 4
15 12 8 12 14 14 10 13 8 5 11 12 4 2 3 5 8 7 5 4 6 6 20 21 23 25 25 22 21 21 17 15 14 17 18 17 15 14 15 17 20 19 19 15 13 12 12 9 10 11 10 10 9 9 9 8 10 8 8 9 10 8 7 9 8 8 8 7 6 6 7 6 6 5 5 2 3 6 7 6 7 7 7 7 5 7 6 5 6 7 6 7 6 5 7 7 7
11 21 8 12 9 17 18 12 6 8 7 6 6 2 3 3 7 5 8 5 14 25 24 25 25 24 22 28 20 19 16 15 13 12 14 17 18 17 18 18 13 11 15 18 15 11 13 12 12 12 11 11 9 10 9 8 7 9 10 12 8 10 9 8 7 7 9 10 6 7 7 8 8 7 6 6 7 6 7 6 6 7 7 7 8 7 7 5 6 6 6 6 6 6 7 8 8
10 16 12 16 11 14 12 10 8 7 8 9 3 5 6 4 5 6 7 16 23 24 26 27 26 23 21 20 19 18 17 14 14 12 10 12 13 13 10 13 14 17 16 16 16 14 13 14 13 13 12 11 10 11 10 8 7 8 7 8 9 11 7 7 7 5 8 9 10 9 7 8 7 8 8 8 7 8 6 6 7 6 5 6 7 6 7 7 6 7 8 8 7 7 7 9 9
11 18 15 15 14 11 12 7 7 8 7 6 7 6 7 10 7 8 16 14 21 25 26 27 27 25 23 20 18 18 17 16 14 14 16 13 13 15 13 17 14 15 22 23 18 15 14 14 15 14 14 14 11 10 10 9 9 10 8 9 8 10 7 8 7 8 6 8 9 8 6 6 9 9 8 6 5 5 5 5 5 4 6 5 4 6 6 7 9 8 8 8 7 7 7 10 8
9 11 12 15 17 16 11 15 9 9 10 4 8 5 7 5 6 8 8 23 24 25 24 23 25 24 21 20 19 18 21 20 21 16 12 9 11 16 15 17 18 16 11 16 17 15 13 13 12 12 12 11 11 11 10 9 8 9 9 8 8 8 8 10 15 13 7 9 10 10 6 7 7 9 8 6 7 7 5 3 2 3 5 6 7 7 6 7 7 10 11 10 9 9 10 7 3
10 13 9 10 8 6 6 4 9 7 11 4 6 9 8 5 3 20 15 19 26 29 24 22 21 21 19 17 16 12 15 15 15 15 19 16 17 16 18 19 16 11 14 13 13 13 14 14 14 11 13 12 11 11 11 10 9 8 7 8 8 10 9 10 13 13 11 10 8 8 9 11 9 6 5 5 4 4 4 4 3 4 6 6 7 6 7 6 8 9 10 8 6 5 3 2 2
10 8 8 9 8 15 6 6 7 2 10 4 7 7 12 4 7 19 26 19 22 27 24 21 20 19 18 17 15 13 15 15 14 14 17 17 15 16 19 15 18 16 14 17 16 13 15 13 12 10 13 11 12 12 11 9 6 6 7 8 9 11 10 9 10 9 7 4 8 7 5 5 4 4 4 5 4 4 4 3 2 4 6 6 5 4 3 2 3 3 4 4 5 3 4 6 7
8 9 5 7 8 12 11 7 6 5 8 3 8 13 15 15 11 20 24 26 23 27 23 21 20 19 18 16 16 13 13 14 16 17 17 16 17 17 18 16 14 16 17 14 13 15 13 12 9 10 13 12 11 10 10 10 8 7 6 8 10 10 10 10 10 10 10 7 6 7 7 5 3 1 3 3 3 4 2 3 3 3 5 5 3 2 3 2 3 3 3 2 5 4 5 4 8
6 9 6 8 7 20 3 10 6 10 8 6 9 10 18 15 6 27 27 30 29 27 25 23 22 19 18 16 16 17 16 17 19 15 16 15 16 16 16 14 11 10 13 12 15 12 12 12 10 10 11 11 8 9 11 11 9 10 10 8 9 9 9 9 9 11 13 12 9 8 8 7 6 5 4 4 5 5 5 6 6 5 6 5 6 2 3 1 2 2 2 6 3 5 6 5 7
9 11 11 9 6 21 7 9 9 19 13 8 10 10 22 15 6 25 23 24 28 27 22 22 21 19 18 18 18 17 18 15 14 13 13 13 12 14 13 12 14 17 16 16 13 12 12 9 9 10 10 10 7 8 9 14 14 11 11 10 8 5 7 6 7 10 11 11 9 8 6 7 9 9 5 4 3 5 6 8 8 11 9 7 6 4 3 3 4 4 3 8 8 5 8 5 5
11 5 6 9 3 15 19 10 14 16 17 3 17 18 5 10 10 27 28 26 27 27 23 20 22 21 19 18 18 16 15 14 12 13 13 11 10 8 6 5 17 20 19 17 16 14 12 9 12 13 14 13 10 9 8 10 13 12 11 9 8 5 5 5 4 6 8 9 8 8 7 5 5 6 6 5 10 9 10 11 10 9 8 7 6 4 4 4 5 6 4 4 8 8 7 5 6
14 4 11 8 8 9 15 16 12 14 14 10 14 18 5 4 6 26 21 26 24 26 21 21 21 20 18 18 18 18 17 18 19 17 13 10 12 9 6 7 13 20 20 21 20 20 18 14 12 13 13 12 12 13 11 10 9 10 11 11 10 10 4 3 3 6 6 4 7 7 7 6 6 6 6 5 6 8 10 11 9 9 9 7 7 5 3 3 5 7 6 4 5 10 7 7 6
5 8 6 13 5 9 18 22 12 15 14 15 14 14 3 7 16 26 27 21 25 26 26 25 22 19 19 18 18 17 16 16 18 13 13 10 11 9 6 9 16 18 19 19 19 16 16 13 13 13 13 12 11 12 10 10 10 8 8 11 11 9 7 5 2 2 3 4 5 5 5 6 7 4 3 4 6 8 8 8 7 5 7 8 8 7 5 6 6 5 8 7 6 5 9 7 7
10 9 8 5 6 14 12 24 27 16 14 14 17 22 8 4 4 7 16 21 25 21 19 20 19 19 17 16 15 15 14 16 13 10 12 12 12 10 9 11 15 18 18 19 18 17 16 13 11 12 11 11 10 10 12 12 12 14 14 8 11 8 6 6 3 1 1 3 5 5 7 5 7 7 9 6 3 2 5 5 5 4 7 8 8 7 6 6 7 7 6 8 8 7 8 6 7
11 5 3 6 5 16 20 18 12 15 15 15 23 11 9 10 10 7 5 16 17 18 17 18 18 20 19 18 18 17 15 19 13 14 12 12 10 9 10 12 15 16 18 20 18 16 16 18 15 14 10 9 12 13 12 13 12 13 14 14 11 6 8 6 5 3 2 2 2 3 4 5 6 7 6 6 6 6 6 5 5 4 7 7 7 7 6 7 6 6 6 5 7 6 6 5 5
8 2 4 12 3 12 20 13 5 3 13 2 4 8 2 5 4 7 15 3 19 21 19 19 21 21 22 22 19 18 16 5 9 8 9 8 9 8 11 13 15 19 16 18 19 16 14 14 15 13 9 8 10 11 10 10 8 15 17 15 14 11 10 10 6 5 5 5 3 1 2 2 5 6 4 2 2 4 5 6 5 6 6 7 7 7 5 6 7 7 6 7 4 7 6 4 4
2 3 3 5 11 8 14 12 10 7 13 4 3 9 9 9 9 4 20 25 21 24 27 27 25 19 17 17 17 15 11 10 10 9 8 8 9 9 11 11 12 18 16 18 17 16 15 14 13 10 10 11 9 7 8 7 6 11 16 14 17 12 5 6 8 5 4 7 6 5 5 4 3 3 4 3 5 4 4 5 5 6 6 8 8 7 7 6 5 7 5 10 6 5 7 5 5
2 5 5 8 5 10 14 19 9 14 10 2 1 3 10 6 7 6 12 21 19 16 18 21 22 26 22 23 23 22 16 15 18 19 16 12 9 10 10 12 13 15 15 14 18 18 15 14 12 11 10 7 7 5 6 6 9 9 12 13 8 10 11 8 8 6 7 9 8 6 7 6 5 5 4 4 2 4 4 5 4 4 5 5 8 8 6 8 7 5 5 5 9 7 7 5 3
4 2 6 6 2 6 6 10 14 8 7 5 8 12 12 8 7 11 5 10 11 11 10 13 15 22 25 21 19 24 26 22 21 17 13 12 13 15 15 14 13 15 15 16 18 19 16 15 14 14 12 8 6 8 11 13 16 14 14 12 12 13 10 9 10 8 6 5 5 8 7 6 9 7 6 5 3 4 2 3 4 5 6 4 5 6 4 4 4 4 6 6 4 8 6 6 3
7 8 9 10 5 6 8 6 5 14 13 8 7 6 11 11 10 3 9 9 17 17 18 18 19 12 12 21 23 19 17 19 26 25 23 20 16 10 10 14 15 14 15 16 16 18 17 15 14 11 8 9 11 10 14 16 17 19 16 16 14 12 12 11 11 11 7 8 7 3 6 7 8 7 7 7 6 5 5 3 3 5 5 4 6 7 6 6 4 4 2 4 5 3 9 6 5
3 10 7 8 7 5 6 8 3 4 5 8 5 8 13 13 12 7 7 8 15 16 16 22 17 15 18 21 21 25 23 16 10 16 16 15 13 13 13 16 18 17 14 13 13 16 18 18 16 14 12 12 13 12 14 18 16 15 17 16 16 16 16 8 6 5 9 7 7 7 6 6 7 11 8 6 7 6 6 6 6 6 8 7 5 6 6 5 5 4 3 4 4 6 7 6 9
9 8 4 5 4 4 3 5 7 8 6 7 4 12 8 9 15 9 2 4 6 16 14 9 24 24 22 19 21 20 19 17 19 19 21 22 22 23 22 19 18 21 15 14 15 14 18 19 17 15 13 15 14 14 16 19 18 13 12 10 13 13 13 13 10 9 7 6 10 7 8 7 8 9 9 8 8 7 7 7 8 8 9 8 10 8 7 5 8 6 4 4 5 4 5 10 7
14 8 8 8 2 6 7 9 5 4 2 13 5 4 6 8 15 9 2 4 5 11 18 16 25 29 26 23 22 22 22 25 25 23 20 20 19 18 15 16 15 15 16 19 19 20 19 18 18 13 14 16 15 16 18 17 19 16 15 13 10 7 10 12 10 9 10 8 9 6 9 7 8 8 8 8 8 8 8 8 8 9 10 8 10 9 8 9 9 9 9 10 8 7 5 4 7
10 9 3 3 3 5 7 4 6 7 7 7 8 4 9 11 11 12 6 3 3 8 10 5 9 22 25 27 21 19 15 12 14 19 22 19 17 16 19 17 14 19 17 16 14 15 15 15 16 14 13 15 15 15 18 17 19 17 14 12 13 10 12 9 9 11 9 8 10 7 7 9 8 8 7 6 8 7 7 8 8 8 7 8 10 9 9 11 9 10 8 9 9 10 7 8 7
4 4 9 8 10 10 8 11 8 9 4 9 7 3 6 9 10 8 5 4 4 2 5 2 7 17 14 13 17 17 15 14 14 10 7 5 4 5 6 12 12 7 8 9 10 11 12 15 15 16 15 14 10 14 17 17 16 17 17 14 15 15 13 13 13 10 10 9 11 7 8 7 6 8 7 6 7 6 7 6 8 6 6 7 9 9 9 10 9 9 8 9 10 11 9 9 9
3 5 6 9 10 14 13 10 9 8 9 10 6 5 7 6 12 12 10 7 10 10 13 4 9 15 18 12 10 12 13 11 9 10 9 9 8 8 9 8 9 10 8 8 8 10 13 13 15 14 8 10 9 6 16 17 16 14 14 15 17 17 15 15 16 15 13 13 11 11 9 9 7 7 6 8 6 5 7 7 6 6 6 7 8 7 8 9 9 8 9 9 9 7 7 9 8
13 10 13 12 7 11 8 10 8 6 10 3 4 4 7 5 13 10 13 9 13 7 16 12 16 17 16 16 15 15 17 14 13 11 11 9 10 12 12 10 8 10 12 10 11 11 11 12 12 14 9 11 13 6 18 16 16 15 16 16 15 16 14 13 14 14 12 14 13 12 11 11 9 9 7 8 4 5 7 9 7 7 6 6 7 9 7 8 9 8 8 7 8 8 7 8 10
8 7 8 10 6 5 7 8 7 7 11 9 4 3 8 9 12 8 8 10 6 5 17 15 18 20 20 18 16 18 17 15 13 12 12 10 10 8 11 14 13 11 9 12 10 9 7 8 8 12 11 15 18 17 10 15 14 14 14 15 14 14 14 13 13 14 12 13 14 14 13 13 12 11 9 8 8 6 6 6 6 5 5 6 6 7 8 7 8 9 7 8 7 5 8 9 9
6 10 12 13 15 17 11 10 12 12 12 8 8 8 11 4 11 5 5 5 8 14 14 12 15 15 15 15 18 17 16 11 12 12 10 10 9 8 7 7 9 10 13 10 9 10 10 10 9 11 13 13 18 14 7 11 15 14 15 13 11 10 14 13 13 12 13 14 13 14 12 12 13 11 12 9 6 7 6 6 6 7 6 6 7 7 8 8 7 8 8 7 7 7 8 9 8
7 5 14 10 12 15 12 15 11 8 4 8 6 9 10 11 9 8 4 4 16 16 16 21 20 18 17 17 15 15 14 13 12 13 12 10 10 8 8 9 7 12 13 13 12 13 14 14 13 15 19 23 24 24 21 18 16 16 17 15 12 9 12 12 11 9 11 13 14 15 15 14 14 13 10 9 7 9 7 6 5 5 5 6 7 8 8 9 8 10 7 7 6 5 9 7 5
8 7 4 13 14 17 8 6 2 8 12 11 6 9 10 11 7 6 6 6 7 15 17 18 18 16 17 18 15 14 14 13 12 13 11 9 7 8 11 13 13 17 17 14 14 17 20 21 23 21 17 15 21 21 21 17 18 17 16 18 14 11 12 15 16 13 14 12 12 12 15 15 14 14 13 10 11 9 10 9 8 5 5 6 7 6 7 7 8 8 8 7 7 5 8 6 5
10 8 9 5 6 11 14 10 6 4 7 14 2 7 5 4 10 16 4 3 5 11 12 15 15 17 19 16 15 16 16 15 13 14 13 14 14 13 11 10 12 17 20 18 14 11 15 18 20 19 16 14 12 14 16 15 16 17 15 14 14 15 15 15 16 15 13 14 12 10 9 11 13 14 14 12 12 12 10 10 9 7 6 6 7 6 6 7 7 7 6 6 7 7 7 5 6
8 11 5 12 7 7 10 13 4 4 6 8 5 6 6 4 8 12 14 7 9 8 12 15 12 14 17 14 15 13 14 15 17 17 18 17 15 14 12 10 8 10 14 18 21 20 16 13 13 19 20 17 16 13 13 15 14 17 16 15 13 14 15 17 17 16 14 15 15 13 13 14 11 11 12 11 11 10 9 8 8 6 5 5 5 7 6 6 6 6 5 7 5 7 7 6 6
4 4 9 3 15 8 7 13 9 15 8 4 10 8 5 6 6 5 10 16 8 7 3 5 11 16 16 14 13 14 13 14 15 16 14 14 13 11 10 11 12 10 9 9 7 3 6 8 9 8 11 12 13 14 15 17 15 16 17 16 14 16 18 19 19 17 17 18 17 16 15 11 15 13 14 15 14 14 13 12 10 10 7 6 5 4 6 7 6 6 6 6 4 5 5 6 5
15 14 7 4 7 5 12 6 6 8 10 7 6 7 11 9 7 4 6 9 6 9 7 5 7 5 6 8 12 11 12 13 13 15 15 14 12 10 9 9 10 8 6 4 4 6 8 6 9 9 14 14 16 15 14 13 14 15 15 17 17 17 20 20 18 18 20 19 18 18 18 19 15 16 17 17 17 16 15 14 12 11 10 8 8 6 6 7 7 5 5 7 5 5 6 3 4
3 4 5 7 4 5 4 10 7 6 10 8 7 8 15 11 7 7 4 7 12 11 14 9 6 5 7 8 9 12 13 11 13 14 14 14 11 10 9 11 11 13 9 7 5 7 8 9 9 8 9 13 16 12 12 13 12 13 13 15 16 18 21 20 19 18 19 19 16 18 17 15 17 15 15 15 15 15 14 14 13 12 11 10 8 8 7 8 8 7 5 6 7 6 6 6 3
Wind_Speed
3 2 2 1 1 1 2 2 1 2 2 4 4 1 5 1 3 5 6 4 6 3 3 8 10 5 5 8 13 9 9 1 0 4 3 1 6 10 13 13 12 12 11 8 7 7 9 12 15 16 17 19 19 18 18 19 19 18 18 17 15 14 14 14 14 14 14 14 15 15 15 15 14 14 13 12 11 11 11 12 12 12 13 14 15 14 15 17 16 15 15 15 15 15 12 12 13
2 3 3 1 0 1 1 2 2 1 2 2 9 2 4 3 2 5 6 2 4 3 3 11 13 16 18 16 12 9 12 9 4 5 6 9 12 11 12 11 7 12 10 9 7 7 7 10 14 15 17 19 19 19 18 19 19 18 18 17 15 14 14 14 14 14 14 14 15 15 15 15 14 13 13 12 10 10 10 11 12 12 13 13 13 14 14 15 15 15 14 14 16 15 12 12 13
2 4 5 4 2 1 0 1 0 1 2 6 6 5 4 8 3 6 6 6 11 7 7 8 8 6 6 5 9 5 3 5 11 10 7 11 12 8 13 10 6 2 8 6 6 5 5 7 12 15 18 18 18 18 18 19 19 18 17 16 16 15 14 13 13 14 14 14 15 15 15 14 14 13 13 12 11 10 9 9 11 12 12 12 12 13 13 14 16 16 15 13 13 13 12 11 11
2 1 1 1 1 1 2 2 4 5 3 7 6 5 4 3 9 9 6 7 13 10 4 4 6 6 6 15 8 8 7 5 7 9 6 7 7 10 13 15 15 7 4 5 5 5 5 9 12 15 17 18 18 18 18 18 19 18 17 16 16 15 14 13 13 14 14 14 14 14 14 14 14 13 13 12 11 10 10 9 8 10 10 11 12 11 11 13 15 15 14 13 13 12 11 11 10
2 0 1 2 2 1 1 2 2 4 6 4 5 4 4 4 6 5 3 2 2 7 6 6 7 2 8 7 1 1 3 8 10 8 7 7 12 14 14 12 9 8 7 7 7 6 7 12 13 14 16 18 17 18 18 18 18 18 17 16 16 15 13 13 14 14 14 14 14 14 14 14 14 14 13 13 12 12 12 12 11 10 11 11 11 10 12 13 13 13 13 12 11 11 9 10 9
1 2 0 2 0 1 2 1 2 3 9 2 2 3 2 10 9 6 4 5 5 9 8 4 6 4 4 4 2 4 7 4 8 8 7 6 10 14 13 11 10 10 9 8 8 6 6 10 12 13 15 17 17 17 18 18 18 17 17 17 16 15 14 14 14 14 15 14 14 13 13 13 13 14 14 13 13 13 12 12 11 11 11 12 12 13 15 13 12 11 12 11 11 10 7 7 7
1 3 1 1 1 1 4 2 4 6 10 5 5 8 5 10 13 4 3 5 5 9 8 11 16 11 10 2 6 6 3 9 8 5 5 11 9 13 14 10 11 11 9 7 7 7 8 11 13 14 15 16 17 17 17 17 17 17 17 16 15 15 15 15 14 14 14 14 13 13 13 12 13 13 13 13 13 13 12 11 12 12 12 12 13 13 13 12 11 11 11 11 11 10 7 4 4
0 2 0 2 1 1 0 2 6 5 6 7 5 5 7 11 8 2 3 4 2 3 3 9 4 10 1 2 6 5 10 7 13 13 13 10 9 8 9 9 11 10 10 8 7 7 13 11 13 14 15 15 17 17 17 17 17 17 17 16 16 15 16 15 15 14 12 13 13 13 12 12 12 12 12 13 13 13 13 13 12 12 12 13 13 13 12 12 12 12 11 11 10 9 8 4 2
1 1 1 3 1 1 0 4 7 4 5 6 11 9 10 8 13 6 3 1 5 4 5 7 6 10 3 11 7 5 7 9 12 13 12 11 10 8 8 9 11 10 10 9 8 7 8 11 13 14 15 16 17 18 17 17 17 17 16 16 15 14 14 14 14 14 12 12 12 12 12 11 11 11 11 12 13 13 13 13 13 13 12 13 13 13 13 12 12 11 11 10 9 9 8 5 2
0 1 0 1 2 1 1 7 2 5 2 5 7 13 10 7 8 13 5 3 8 5 2 2 1 10 10 14 8 5 6 9 13 11 10 11 10 8 7 8 10 14 12 10 8 8 7 14 13 14 14 15 16 16 16 16 16 16 15 16 15 14 14 14 13 12 12 11 11 10 10 10 10 9 9 11 12 12 13 13 12 13 13 13 12 12 12 12 11 11 10 10 9 8 7 6 4
1 1 1 1 0 1 4 7 3 8 7 6 9 12 16 11 10 2 3 5 8 6 5 11 11 14 10 7 4 4 8 10 14 11 9 11 11 8 4 8 9 11 13 12 9 8 8 9 16 13 14 14 15 14 14 15 15 15 15 15 15 15 14 13 13 13 12 11 11 11 10 10 10 10 11 10 11 11 12 12 12 13 13 12 12 11 12 12 11 10 10 10 8 7 5 3 3
1 1 1 1 2 4 5 2 5 8 10 6 9 11 5 7 3 1 3 8 2 9 8 2 6 13 9 6 4 6 6 7 9 8 10 11 9 5 4 7 9 10 12 12 9 8 7 8 8 15 15 14 14 15 14 15 15 15 15 15 15 14 13 13 13 13 12 11 11 10 10 10 10 11 10 10 9 10 11 11 11 12 13 12 12 11 11 11 11 10 10 9 7 6 4 3 1
1 0 1 1 2 1 6 1 7 6 5 7 6 5 2 8 4 3 3 8 4 3 2 1 18 3 5 4 5 4 8 4 8 8 8 8 6 6 7 8 9 9 10 11 11 9 8 7 7 8 12 17 15 14 14 14 14 14 14 14 14 14 13 13 13 12 12 11 11 10 10 9 10 10 10 10 9 10 10 11 11 11 12 11 11 11 10 10 10 10 9 8 6 5 4 2 2
3 4 3 2 0 1 6 3 4 4 6 6 5 5 6 3 4 5 6 5 4 4 1 13 8 15 10 8 6 6 6 6 10 8 7 9 10 11 9 7 11 8 4 9 10 9 8 7 7 8 10 9 9 11 13 14 14 13 12 12 12 12 12 12 12 12 11 11 11 11 10 10 10 10 10 10 9 9 9 10 11 11 11 11 10 10 10 10 10 9 8 7 6 4 3 3 2
3 1 1 2 3 1 4 1 3 2 7 6 5 3 5 3 1 1 9 8 4 3 9 3 7 8 7 12 6 10 10 9 10 10 10 13 12 9 8 10 7 6 4 4 7 8 8 7 7 7 7 7 7 6 6 10 13 13 12 12 11 12 11 12 12 11 11 10 10 10 11 11 11 11 10 10 9 9 9 9 10 10 11 11 11 10 10 9 8 8 7 6 6 5 3 2 2
4 1 1 1 3 3 7 1 1 1 6 1 6 3 4 3 2 2 2 6 3 2 5 3 3 2 9 8 15 14 13 12 12 12 13 15 13 10 11 11 8 7 6 2 3 5 7 7 6 6 6 6 5 5 6 7 10 14 12 11 12 12 12 12 11 11 11 10 10 10 10 8 8 8 11 8 10 9 7 5 9 9 10 10 9 9 9 9 8 7 7 5 5 5 3 4 2
1 1 1 2 7 4 5 2 1 2 6 6 11 4 2 3 4 1 5 5 7 1 4 3 0 1 15 5 15 16 14 12 12 15 14 11 9 7 6 6 8 7 5 1 1 4 6 7 6 5 6 6 6 5 5 6 8 12 10 12 12 12 11 13 11 12 11 10 9 8 7 4 4 3 5 4 9 5 7 8 9 8 8 9 9 8 8 8 8 7 6 5 5 4 3 4 2
1 2 2 5 6 5 4 1 1 2 6 9 12 5 2 2 4 1 8 11 10 9 9 7 13 12 12 14 18 17 15 14 13 15 12 10 8 8 7 6 6 9 8 4 2 4 5 5 6 6 5 6 6 5 4 4 5 8 5 6 6 8 10 11 9 7 8 5 10 7 4 4 4 4 4 7 4 5 6 8 8 8 8 8 7 8 8 8 8 7 6 6 4 3 3 1 2
3 1 3 9 4 5 1 0 4 3 6 7 9 8 2 0 1 1 5 2 7 11 6 11 14 14 14 15 16 16 14 13 12 14 14 13 11 11 8 7 6 5 5 3 5 4 3 5 5 6 6 5 5 4 4 4 4 4 4 4 5 8 7 8 5 6 4 5 4 5 4 5 3 3 3 4 4 6 5 7 8 8 8 8 8 8 7 7 7 7 7 6 4 3 1 1 2
4 4 6 7 3 5 3 2 6 4 6 6 6 4 4 2 1 1 2 4 9 12 8 6 14 14 14 14 14 13 11 11 12 14 14 12 11 11 11 9 8 6 4 6 3 1 2 4 5 6 7 6 6 5 4 4 4 4 5 4 4 4 4 4 4 4 4 4 4 3 4 3 3 3 6 9 7 4 4 7 8 8 7 7 7 6 7 6 7 7 6 6 4 1 1 2 3
2 3 4 4 4 5 5 4 6 5 5 2 3 4 5 8 3 0 4 7 1 7 13 15 16 17 16 15 15 11 11 10 8 10 12 12 9 8 9 8 8 8 8 6 5 3 1 4 6 6 6 6 6 6 6 5 5 5 5 5 5 4 4 4 5 4 4 4 3 3 3 3 3 2 2 2 4 3 3 3 3 3 3 3 5 3 2 3 4 2 2 2 1 2 2 3 3
0 5 5 7 6 5 9 9 9 6 8 3 0 2 3 5 4 3 1 1 7 8 6 16 19 21 21 18 13 12 11 9 8 10 11 12 12 11 9 8 8 7 6 7 7 5 4 5 6 6 6 6 6 6 6 5 6 5 4 5 5 4 5 4 4 5 5 4 3 3 3 4 3 3 2 2 2 4 3 3 3 2 2 3 3 4 3 3 2 3 2 2 2 2 4 3 2
4 5 5 6 8 7 4 5 3 2 4 8 1 1 0 3 5 4 3 2 3 3 11 13 16 16 17 15 14 14 12 10 9 10 11 11 10 10 9 10 12 11 10 9 7 8 8 6 6 7 6 6 6 5 5 5 5 4 4 5 5 5 4 5 4 4 4 4 4 4 5 4 4 3 3 1 2 4 4 3 4 4 4 4 3 4 3 2 3 4 2 3 2 2 4 4 3
5 7 5 8 6 10 12 8 5 5 5 3 3 1 1 2 3 2 3 3 7 15 15 17 17 16 15 17 13 13 11 9 8 7 8 11 12 12 12 11 8 7 9 12 9 7 8 8 8 8 7 7 6 6 5 4 4 5 5 6 4 5 5 5 4 4 5 5 4 4 3 4 5 4 4 4 3 3 4 4 4 4 4 4 4 3 3 2 3 3 2 3 3 3 4 4 4
5 6 7 10 7 9 8 7 6 5 5 6 2 1 4 3 2 4 2 10 15 16 16 17 17 16 13 14 13 12 11 9 8 7 4 4 6 8 7 8 9 10 8 10 10 9 9 9 9 9 8 7 6 6 6 4 4 5 4 4 4 6 4 4 4 3 5 5 4 3 3 4 4 4 5 4 1 3 4 4 4 3 3 3 4 3 4 4 4 4 4 4 4 4 4 5 4
4 10 8 7 7 8 8 4 5 6 3 4 4 3 4 6 5 3 7 9 14 15 16 17 17 17 16 14 13 12 10 10 9 9 9 6 5 8 8 10 8 10 13 11 10 9 8 9 10 9 9 8 6 6 5 5 5 6 5 5 4 5 4 4 2 1 3 3 3 2 2 4 5 5 4 3 3 3 3 3 2 3 4 3 3 4 3 4 4 4 3 3 4 4 4 6 4
4 6 6 7 11 10 8 10 6 4 3 4 4 3 4 2 4 2 2 13 15 16 16 14 17 16 15 13 12 12 14 14 14 10 8 6 5 7 9 8 10 10 5 8 7 6 6 7 7 7 7 7 6 6 5 4 4 4 5 5 4 4 5 5 4 3 4 3 4 3 2 3 3 3 1 3 4 4 3 2 2 2 3 4 4 4 3 4 4 5 5 5 5 5 6 5 2
5 7 6 7 6 5 5 2 5 2 4 3 4 5 3 2 1 11 8 9 16 19 16 14 13 14 12 12 10 8 9 9 9 10 13 10 9 8 9 9 9 6 6 7 6 5 7 7 7 7 7 7 7 6 6 5 4 3 4 4 3 3 5 5 7 6 5 4 4 4 3 4 4 2 3 2 3 3 2 2 3 3 4 3 4 4 3 3 4 5 5 5 4 3 2 1 1
6 5 4 6 5 6 3 1 3 1 3 3 1 2 6 1 3 13 13 11 13 18 14 13 13 12 11 10 9 8 9 9 8 8 10 10 9 8 12 8 10 8 6 6 7 7 9 7 7 6 7 6 7 7 6 5 4 3 4 4 5 5 4 5 6 5 4 2 5 4 3 3 2 1 2 2 1 2 2 2 1 2 3 3 2 3 3 1 2 2 3 3 3 2 2 3 3
5 3 1 3 5 5 7 1 3 1 2 1 5 5 9 7 1 14 15 14 13 16 13 13 12 12 10 10 10 8 7 9 10 10 10 9 9 10 11 9 8 8 7 3 5 7 6 5 5 6 7 8 7 5 6 6 4 3 3 5 5 5 4 4 5 3 3 2 3 4 4 3 2 1 2 2 1 1 1 1 2 0 1 3 2 1 2 1 2 2 2 1 3 3 3 3 5
2 5 2 2 4 7 1 3 2 4 3 2 4 3 10 8 4 16 14 19 19 16 15 14 13 12 10 9 10 10 10 10 12 9 10 10 10 9 10 8 6 4 5 5 9 6 7 6 5 5 6 7 5 6 7 6 5 5 4 4 6 5 4 4 4 3 3 3 3 3 3 3 3 3 3 3 3 2 2 2 2 3 2 3 4 2 1 0 1 1 1 2 2 3 3 3 4
2 4 4 4 2 9 4 4 4 7 2 6 5 4 11 9 2 17 14 16 18 16 12 13 12 11 10 9 10 10 11 9 9 8 9 9 8 8 5 5 4 6 8 10 7 7 8 6 5 6 7 6 5 5 6 8 7 6 5 4 4 3 4 4 4 5 5 4 3 3 3 4 4 3 2 2 2 3 3 3 4 5 4 4 3 2 2 2 2 2 1 5 4 3 4 3 3
5 1 3 4 2 6 9 6 6 9 5 1 9 6 2 5 6 19 18 16 15 15 11 11 13 13 11 9 10 9 9 8 8 8 9 7 6 5 3 3 6 10 8 8 9 7 6 5 7 8 8 7 6 4 5 7 8 7 6 5 4 3 3 3 4 4 4 4 2 2 2 3 3 3 3 3 2 2 3 4 4 5 5 4 2 2 2 2 2 3 2 2 5 4 4 3 3
5 2 2 2 4 5 5 9 7 6 6 4 6 6 2 2 5 17 11 15 15 15 13 12 12 11 11 10 10 10 10 11 12 11 8 6 7 6 4 4 7 10 9 10 10 10 9 7 7 8 8 8 7 7 6 6 6 7 7 6 5 4 2 2 3 4 4 2 1 2 2 3 1 0 1 2 1 2 4 4 4 4 4 4 4 3 2 1 3 4 4 2 3 6 4 4 4
1 3 3 5 1 5 11 5 5 7 9 10 8 8 1 3 11 17 18 14 15 15 15 15 14 12 12 11 11 10 10 10 11 8 9 7 8 6 4 4 8 10 9 11 11 9 9 7 7 7 8 8 7 7 5 6 5 5 5 7 6 5 3 2 1 1 3 3 3 2 2 2 2 2 2 1 2 3 4 5 4 3 3 4 4 4 3 3 3 3 5 4 4 3 5 4 4
5 4 4 2 3 6 4 10 16 8 6 8 9 10 5 1 4 5 11 14 16 14 12 11 12 12 11 10 9 9 7 9 6 6 8 7 7 6 4 6 8 10 10 11 12 10 9 8 6 7 7 7 6 6 7 6 6 6 5 4 6 5 4 3 1 0 0 1 2 2 3 1 2 2 3 2 1 1 3 3 3 3 4 5 5 4 4 4 4 5 4 5 5 4 4 3 4
7 2 2 3 3 6 7 10 7 8 7 9 13 7 6 6 4 4 4 2 6 10 11 10 10 11 11 11 11 11 9 11 4 5 6 8 6 6 6 7 8 11 11 13 12 11 11 10 10 9 6 6 7 7 6 7 7 5 4 5 6 4 5 4 3 1 1 0 0 1 2 2 2 3 2 2 2 1 0 1 2 2 3 4 4 4 4 4 4 4 3 3 4 4 3 3 2
5 1 1 7 1 5 8 5 4 0 5 1 2 5 1 3 2 5 10 2 8 12 12 11 13 13 12 14 12 12 10 3 3 4 5 5 5 5 7 7 10 12 10 12 12 11 9 9 10 8 5 5 6 6 6 5 5 7 7 6 5 4 5 6 4 3 3 3 2 1 0 1 4 4 3 2 1 1 2 1 1 2 3 4 3 3 3 3 4 4 4 3 2 4 2 2 1
0 0 1 3 4 4 9 4 5 4 6 0 1 6 5 4 4 3 12 16 11 12 17 17 16 12 9 9 11 10 7 5 4 4 4 4 4 6 7 6 8 11 10 11 11 10 10 9 8 7 6 7 6 4 4 4 3 6 7 5 7 4 1 2 4 3 3 4 4 3 3 3 2 2 2 1 2 1 1 2 2 2 2 3 4 4 3 3 1 3 3 5 3 2 2 1 2
1 3 1 4 2 3 6 10 4 7 3 1 1 2 4 3 4 3 7 13 11 11 11 14 14 16 13 14 14 14 11 9 12 12 10 6 6 7 7 7 8 9 9 9 10 12 9 8 7 7 6 5 5 4 3 4 6 6 6 7 3 5 4 3 4 4 4 6 5 4 4 3 4 3 1 1 0 0 1 2 1 2 2 3 4 4 3 5 5 3 3 3 5 4 2 1 2
2 1 2 1 1 2 3 5 7 4 3 3 3 6 6 4 3 2 1 2 6 5 5 5 7 11 15 12 11 15 17 14 13 11 8 8 8 10 10 8 8 9 9 10 10 10 8 10 9 9 7 5 4 4 6 7 9 8 7 6 6 7 5 5 5 6 4 3 3 5 4 4 5 4 4 3 1 0 1 1 1 1 2 3 3 3 2 2 2 2 3 3 2 5 3 2 2
3 3 5 5 2 3 5 4 3 6 5 4 4 1 3 5 2 1 2 2 4 7 10 11 12 7 4 10 14 11 10 12 17 16 15 13 10 7 7 9 9 8 9 9 9 10 10 9 8 6 5 5 5 6 8 9 9 10 8 8 6 5 6 5 6 6 4 5 4 1 4 4 5 5 4 4 4 3 1 0 1 1 1 3 3 3 3 3 3 2 2 3 2 2 5 3 2
1 4 4 5 3 4 4 6 1 0 1 3 1 3 3 6 6 4 1 4 10 4 8 12 10 8 9 10 10 13 13 10 7 8 9 9 8 8 7 10 10 10 8 8 8 10 11 10 9 7 7 6 6 6 8 10 9 8 9 8 7 7 7 1 1 1 4 3 4 4 4 4 5 7 5 4 4 4 4 3 3 3 2 2 1 3 3 3 2 2 2 3 3 3 4 3 5
2 4 3 3 3 2 1 2 2 2 2 3 2 4 3 2 7 3 1 3 5 10 9 6 7 9 11 10 10 10 10 11 12 12 13 13 13 13 14 12 11 12 9 8 9 8 12 12 10 8 6 7 7 7 8 10 10 8 8 6 5 6 5 6 3 3 2 3 6 4 4 4 5 6 6 5 5 5 4 4 4 4 5 3 3 3 3 3 4 3 3 3 3 2 3 5 4
4 5 6 5 1 4 5 6 3 1 0 6 3 3 2 2 6 5 1 2 1 8 12 10 14 14 13 13 12 11 13 14 15 13 11 11 11 10 8 10 8 8 10 11 11 12 11 12 11 9 8 8 7 8 8 8 10 9 9 8 6 2 4 5 3 2 3 3 5 4 5 4 5 5 5 5 5 5 4 4 4 5 5 4 4 5 3 4 4 4 4 5 4 4 3 3 4
5 5 1 1 2 3 4 2 3 3 3 2 4 1 1 4 5 6 3 1 2 3 7 3 6 14 14 14 12 11 9 8 8 11 12 11 10 9 10 8 9 12 10 10 9 9 9 9 9 9 9 8 8 8 9 10 12 10 8 8 9 6 4 3 3 4 4 4 5 4 4 5 6 5 4 4 6 5 5 4 5 5 4 4 4 4 4 5 5 5 4 5 5 6 4 5 4
2 2 2 3 6 5 3 6 4 4 0 4 2 1 1 1 4 3 1 0 2 1 3 1 4 12 9 7 9 9 7 7 9 6 4 3 2 3 4 8 6 5 4 5 6 7 7 9 10 11 10 8 6 8 10 10 10 10 10 9 10 10 7 6 5 4 3 4 5 4 4 4 4 5 6 4 5 4 4 4 5 4 3 3 4 5 5 5 4 5 4 5 6 7 6 5 5
1 0 1 3 4 8 6 4 5 2 2 4 3 3 5 2 4 5 5 4 6 4 8 3 3 10 8 8 6 6 6 6 5 7 6 6 5 5 6 5 6 6 5 5 5 6 8 8 9 9 5 6 5 2 5 10 10 9 9 10 11 11 10 8 8 8 6 6 5 6 5 6 4 4 4 5 4 4 4 4 4 4 4 4 4 4 4 4 4 4 5 5 5 4 4 5 5
7 5 6 6 2 4 2 4 2 0 3 1 2 1 3 2 5 5 7 6 5 2 6 6 9 10 7 8 9 7 7 7 7 7 7 5 7 7 7 6 5 7 7 6 6 6 5 6 7 9 6 7 8 4 6 10 9 9 10 10 9 9 9 8 7 7 6 6 6 6 6 6 6 5 4 5 4 4 5 5 4 4 3 3 4 5 4 4 4 4 5 4 5 5 4 5 6
5 3 2 5 2 1 1 2 1 3 5 4 3 0 1 3 6 5 5 5 4 3 7 5 11 12 10 9 9 8 8 9 8 8 8 6 5 5 7 9 8 6 6 5 4 4 4 5 5 8 7 10 11 11 6 6 8 9 9 9 8 8 8 8 7 8 6 6 6 7 7 7 7 7 6 5 5 4 4 4 4 4 3 4 4 4 4 4 4 5 4 5 5 3 5 6 6
2 5 6 6 7 4 3 3 4 5 5 3 5 3 2 2 2 2 2 3 3 9 7 6 10 10 9 9 9 9 9 6 7 7 6 6 6 5 4 5 5 6 6 6 6 6 6 6 6 5 6 6 10 8 3 3 5 9 10 8 7 6 8 8 7 7 7 7 6 6 5 6 7 6 7 5 4 5 4 4 4 4 4 4 4 4 4 4 4 4 4 4 4 4 5 5 5
2 2 6 5 4 7 3 6 5 2 0 2 1 2 3 3 4 3 1 2 6 11 11 12 11 11 11 10 9 8 8 7 7 8 8 6 5 5 5 5 5 6 8 8 8 8 8 8 8 8 11 15 15 16 14 11 8 9 11 10 8 4 5 7 7 6 6 7 7 7 7 7 7 7 5 5 4 6 5 4 4 4 4 4 4 4 4 5 4 5 4 4 4 3 5 5 4
2 2 0 5 6 9 4 2 0 5 5 3 1 3 4 5 3 5 3 3 5 10 12 11 11 10 11 10 8 9 7 7 7 8 7 5 5 4 3 5 7 8 8 8 9 10 11 12 13 13 12 11 15 14 14 11 9 9 11 12 9 7 6 8 9 8 8 7 7 6 7 7 7 7 7 5 7 6 6 6 5 4 4 4 4 4 4 4 4 4 5 4 4 3 5 4 4
4 3 4 1 3 5 5 3 1 1 3 4 1 3 2 1 2 6 3 2 1 7 8 10 10 11 12 10 9 9 10 9 8 7 7 6 5 6 5 4 7 10 10 9 8 7 9 11 13 12 10 10 8 10 11 9 9 10 10 10 9 10 9 9 10 10 8 8 7 6 4 5 7 8 7 6 7 7 6 6 6 4 4 4 4 4 4 4 5 5 4 4 4 4 4 3 4
3 4 2 3 1 0 4 5 0 0 1 2 1 1 1 1 2 5 6 3 5 1 7 9 9 9 11 10 10 9 9 9 9 9 9 8 8 7 7 6 4 6 9 10 11 10 9 7 7 9 12 11 11 8 8 9 9 9 9 9 9 9 9 9 10 10 9 9 9 7 7 8 6 5 6 6 6 6 6 5 5 4 4 4 4 4 4 4 4 4 3 4 4 4 4 4 4
2 2 3 0 5 3 3 4 3 5 2 1 3 4 0 3 2 4 5 2 5 4 0 3 3 5 8 8 7 8 8 8 9 10 9 8 8 7 6 6 6 6 6 5 3 1 2 3 4 4 4 5 6 8 9 11 9 9 10 10 9 9 10 10 10 10 10 11 11 10 9 7 9 7 8 9 9 8 8 8 6 6 5 4 4 4 4 5 4 4 4 3 2 3 4 4 3
7 7 3 1 1 2 5 2 2 3 3 3 1 2 2 3 3 3 4 2 1 5 4 4 4 3 3 4 5 6 7 8 8 9 9 9 8 6 5 4 3 2 1 2 2 2 2 2 3 3 6 5 6 7 7 8 8 9 10 11 10 9 11 11 11 11 11 11 10 10 10 10 7 8 7 8 9 9 9 8 8 6 6 5 5 4 4 4 4 4 4 4 3 3 4 2 3
1 2 2 3 3 2 2 3 3 2 4 2 2 3 7 6 3 5 2 5 7 7 9 5 4 4 4 4 4 6 7 5 8 9 9 9 7 6 5 5 4 3 2 2 3 3 4 3 3 3 3 4 5 5 7 7 6 5 5 5 4 4 8 10 11 10 11 11 10 10 10 7 10 8 7 8 7 7 7 9 8 8 7 6 5 5 5 5 5 4 4 3 5 4 4 4 2
Wind_Direction
2 339 319 25 95 103 61 13 106 302 70 248 259 245 254 289 269 349 301 317 77 325 54 58 61 46 96 111 113 91 25 135 244 141 215 184 95 104 114 115 119 120 118 129 141 147 147 146 144 140 136 133 132 131 131 129 128 127 124 123 121 117 113 111 108 106 105 105 105 105 103 101 100 98 96 96 97 101 103 104 104 103 103 107 109 107 105 106 105 106 108 105 102 102 104 105 106
36 5 358 358 96 96 294 142 105 19 39 342 248 150 251 279 302 277 269 200 118 156 131 87 85 90 100 113 130 102 44 37 40 95 83 85 80 68 71 68 95 129 134 139 143 142 144 143 139 136 132 131 133 134 134 132 130 128 126 125 123 119 117 114 111 109 108 108 107 107 106 105 103 100 98 94 88 88 92 97 102 108 106 106 108 109 107 105 105 103 104 109 111 107 105 104 107
33 22 358 35 39 93 244 46 106 140 118 249 271 213 290 314 246 234 219 120 130 133 89 72 67 56 103 139 52 40 129 59 76 75 85 87 83 85 79 80 47 349 126 119 115 116 117 131 132 132 130 130 134 136 135 134 132 131 129 127 125 122 121 118 114 112 111 109 109 108 108 107 105 102 99 94 93 90 92 103 107 108 113 111 108 110 109 105 102 103 102 100 104 110 107 105 105
79 90 109 63 22 17 74 30 98 128 172 230 298 268 240 264 287 217 233 195 168 160 117 46 51 322 81 61 91 67 90 85 75 116 101 76 89 103 125 143 150 163 84 77 77 88 111 133 136 137 133 133 136 134 135 135 135 133 130 128 127 126 122 120 118 116 115 114 112 111 110 109 109 107 104 97 90 86 80 81 90 98 97 110 117 112 105 101 105 105 101 101 109 111 106 101 102
72 273 117 76 106 358 97 188 163 120 225 204 215 261 278 289 341 291 262 266 26 104 99 127 90 26 66 87 356 95 121 97 81 77 96 92 135 144 145 141 119 110 109 111 117 125 136 141 140 136 132 133 135 133 135 136 134 133 130 129 130 128 123 122 122 120 119 118 116 116 115 114 113 113 110 106 98 91 89 89 88 91 93 90 82 82 106 113 105 100 100 99 102 103 105 110 104
57 67 347 93 118 205 41 23 302 225 236 158 253 225 312 304 292 272 297 31 83 100 115 88 126 167 56 36 7 107 149 92 119 74 107 149 153 140 137 131 136 131 135 126 124 126 130 134 133 130 130 131 132 132 134 135 135 131 131 132 130 129 128 127 126 123 122 120 120 119 118 118 118 118 117 113 107 103 98 97 97 94 91 95 98 95 92 96 101 102 101 103 105 108 106 103 108
16 34 22 23 338 72 148 168 231 229 261 175 244 274 291 285 284 289 262 64 18 77 104 122 124 113 88 152 49 21 36 126 105 126 132 155 155 147 141 146 133 127 117 111 112 114 127 132 130 129 131 135 136 135 134 135 134 133 132 132 132 133 131 130 129 127 124 124 123 122 121 121 122 121 120 117 113 109 106 103 99 97 95 94 100 101 105 109 110 103 104 105 106 109 109 103 109
139 93 262 97 282 57 244 204 246 198 271 178 242 262 254 261 291 316 300 117 218 105 108 134 153 91 309 73 113 11 39 62 115 112 125 144 140 124 134 134 127 123 121 121 115 122 132 132 132 131 133 135 135 134 136 136 133 133 134 135 135 134 135 133 131 130 128 127 128 126 124 124 123 122 121 120 118 114 112 110 107 102 102 103 104 105 107 107 105 106 111 113 118 123 124 124 135
1 84 305 70 18 12 342 249 250 239 278 289 275 250 260 268 272 261 256 141 80 60 133 153 122 90 147 91 83 103 71 105 106 120 131 132 126 137 149 146 133 125 118 116 117 114 125 137 133 134 135 135 136 136 136 135 135 137 137 136 135 134 135 135 133 132 130 130 130 129 129 126 124 123 121 120 119 117 115 113 112 111 110 110 111 112 113 114 115 117 120 123 127 129 131 145 191
9 110 275 148 140 276 313 280 231 255 244 256 263 273 255 238 260 238 193 36 132 144 160 342 358 110 128 101 107 89 122 122 116 108 122 128 133 146 140 137 133 126 121 120 119 124 140 138 136 134 133 133 134 135 134 134 138 138 137 136 135 137 136 135 133 132 131 131 129 128 126 124 122 122 121 120 119 119 116 116 116 116 116 116 116 117 117 120 124 127 130 132 133 137 141 158 204
336 336 176 62 20 248 249 268 288 297 284 299 286 263 258 236 223 239 156 115 147 134 127 105 71 115 111 94 53 97 136 133 124 129 133 132 138 136 119 128 127 129 128 125 122 131 134 138 135 130 128 128 129 129 131 134 135 135 136 138 139 140 138 136 136 134 131 131 129 126 123 123 125 125 124 122 119 118 117 116 117 120 121 122 124 127 130 130 133 134 133 134 135 133 135 169 208
17 357 37 113 204 180 244 206 281 284 284 282 281 285 286 199 131 20 70 97 180 147 168 175 150 121 81 111 108 129 121 110 110 119 126 131 131 119 102 113 119 124 119 119 119 124 133 134 132 132 126 125 126 130 132 132 133 135 137 141 141 140 138 138 136 134 133 130 129 127 128 128 130 127 124 121 120 118 118 119 121 125 126 127 129 132 133 135 137 138 138 136 132 128 135 183 198
152 209 96 101 236 150 250 270 265 273 296 282 259 292 47 73 113 143 97 101 166 182 261 137 141 114 109 94 120 123 93 77 100 119 122 121 104 85 69 88 102 103 111 117 123 129 131 130 129 125 129 128 129 131 131 131 133 136 140 140 141 139 139 138 137 135 133 133 133 134 130 126 125 127 128 128 126 126 125 124 122 126 128 129 130 134 138 140 141 142 142 134 129 135 153 178 157
155 180 115 262 316 238 271 238 266 292 289 270 285 282 308 129 176 170 108 65 133 144 38 122 103 98 95 109 124 130 130 135 123 123 111 86 71 53 49 57 71 68 84 121 126 131 127 123 122 128 129 127 128 128 128 130 135 137 136 136 136 138 139 138 136 136 135 136 137 136 130 128 129 130 132 131 130 131 129 128 127 126 128 130 134 139 143 146 147 146 143 140 137 141 166 190 143
207 196 96 155 285 351 253 190 241 274 287 282 271 325 357 353 150 46 109 103 12 96 105 66 159 98 194 148 169 168 163 148 131 126 107 90 74 73 49 71 69 84 99 89 118 124 120 119 117 118 120 117 116 119 125 133 134 136 134 135 136 140 139 139 139 137 138 137 134 132 132 132 133 134 134 133 131 131 134 127 130 132 134 139 144 148 151 152 154 152 150 146 148 150 185 224 187
194 103 112 201 252 217 275 207 220 34 273 268 283 333 55 324 18 30 325 131 161 179 139 155 278 174 170 174 164 149 146 142 140 127 104 100 109 122 120 118 112 101 82 28 81 101 109 107 107 104 103 106 107 109 122 132 140 143 140 137 141 144 145 143 140 140 140 138 134 134 135 135 133 137 138 136 136 133 124 120 136 139 141 145 148 154 156 155 158 162 156 152 157 166 193 239 239
148 116 270 220 271 201 257 185 139 268 283 304 328 353 73 357 319 69 49 99 115 79 48 23 37 96 150 120 127 126 137 142 135 118 109 107 108 98 92 85 119 118 99 38 19 86 101 103 101 100 109 115 115 120 127 137 147 146 143 144 147 146 147 149 145 146 146 145 138 128 118 110 114 120 127 134 139 126 136 143 144 146 148 147 152 157 159 162 164 167 162 162 178 189 198 250 299
100 200 157 248 218 238 223 184 336 278 334 318 322 314 69 49 331 359 60 64 74 60 59 61 53 57 97 113 120 133 142 141 133 120 117 116 117 117 113 117 121 127 136 160 60 86 90 98 114 119 118 120 124 121 129 137 143 145 139 147 148 153 153 154 153 154 148 135 137 127 121 123 122 130 143 140 126 140 145 152 152 151 149 151 151 161 166 170 173 172 175 180 194 205 215 287 328
144 195 152 238 195 244 45 215 271 341 291 288 290 290 40 297 163 342 83 56 94 71 61 91 80 79 93 108 124 133 140 135 128 123 125 126 130 131 124 115 101 94 85 88 92 65 90 106 123 123 125 125 118 117 131 137 134 136 141 135 146 155 162 146 144 141 110 124 119 124 126 132 137 134 132 131 130 134 154 159 159 156 155 157 160 168 171 179 181 181 186 190 199 211 282 296 305
227 169 243 246 219 256 259 238 266 233 254 300 319 317 41 303 308 326 127 153 106 118 122 80 105 115 114 121 125 132 131 127 129 126 121 118 121 126 124 118 113 76 47 17 40 17 129 124 128 128 133 135 132 140 136 138 146 144 133 127 132 131 123 129 119 122 119 110 112 109 120 126 122 147 166 158 152 137 160 167 169 161 160 161 165 165 177 182 192 193 198 200 199 203 220 300 310
267 150 216 237 221 253 266 235 253 264 256 271 262 310 17 322 325 339 166 94 107 159 157 150 147 135 130 132 133 132 121 124 123 117 113 112 111 113 123 131 132 148 131 94 321 179 234 144 142 142 144 144 147 152 154 159 157 142 133 133 140 128 124 123 129 122 116 104 100 102 104 107 109 88 54 47 106 140 155 166 162 152 145 152 161 141 159 191 182 213 221 214 202 219 247 252 267
12 213 221 232 260 263 258 259 260 260 264 246 229 56 288 305 6 9 144 201 202 186 195 139 143 142 141 139 134 120 126 127 129 128 128 129 132 128 121 111 115 115 121 137 162 231 196 174 159 153 150 153 157 157 158 167 156 144 134 141 137 127 131 134 127 129 116 117 121 128 112 101 92 82 51 38 116 151 171 162 154 153 156 169 154 160 164 176 178 206 199 216 229 227 246 253 246
247 281 272 246 242 241 265 252 267 243 285 287 336 220 276 50 315 321 39 254 216 156 125 127 124 125 124 122 124 130 136 139 141 138 137 137 136 134 134 139 144 156 156 162 166 184 180 177 168 158 157 152 154 155 157 164 159 146 137 141 139 139 130 131 129 125 128 130 147 153 139 120 118 118 126 150 188 167 165 155 162 170 178 180 180 170 178 178 185 204 202 220 231 236 257 261 253
203 254 258 267 236 238 248 255 249 260 251 245 223 49 10 30 341 326 47 341 126 113 117 118 123 121 119 125 126 133 135 136 139 143 151 152 147 151 152 149 156 147 160 164 169 168 166 175 168 164 160 151 150 153 159 159 156 145 154 150 130 144 127 126 125 135 143 150 170 167 144 126 137 158 178 187 199 153 156 158 165 169 171 193 184 169 174 185 202 215 208 221 225 232 247 256 257
212 253 245 251 251 245 243 230 240 260 252 243 214 269 259 185 216 94 66 112 110 115 115 117 118 114 108 112 120 126 128 128 130 134 130 148 157 142 137 144 161 161 172 172 167 162 170 167 167 163 160 156 147 151 158 158 153 139 134 128 148 154 122 130 142 140 157 163 169 150 131 139 148 168 183 200 138 155 157 153 162 175 175 186 175 181 181 191 209 215 215 219 219 229 231 255 253
223 230 250 260 252 252 250 253 239 247 242 227 272 258 261 247 139 65 141 108 112 115 115 119 117 115 120 126 133 137 137 136 139 149 158 160 178 150 156 160 169 172 181 180 167 165 161 161 169 164 161 157 148 145 153 162 165 150 142 148 167 155 141 132 111 186 201 138 109 112 160 170 173 178 184 157 157 174 179 161 151 182 187 198 176 192 193 184 206 217 227 237 230 229 234 242 218
212 257 247 245 249 243 255 253 272 268 241 226 231 271 273 291 126 75 313 126 120 115 119 123 123 127 134 140 147 148 145 155 159 154 140 164 190 181 175 166 171 186 188 192 170 147 148 161 162 155 155 155 147 153 164 167 165 158 145 152 166 151 152 115 111 247 229 119 95 106 192 213 186 186 192 153 187 180 155 137 146 179 213 211 197 202 182 190 197 207 213 218 226 228 236 242 223
301 262 272 263 263 250 247 286 279 309 299 214 208 258 267 349 118 161 155 147 132 125 130 129 127 132 138 139 141 147 147 154 151 152 160 170 185 190 178 179 179 179 195 190 159 143 158 171 158 152 157 153 155 160 165 163 174 165 144 136 138 144 138 130 153 199 224 120 140 160 183 227 231 128 123 146 174 126 125 157 185 177 219 235 206 204 200 204 201 213 218 213 218 217 221 168 124
271 273 281 280 322 321 297 215 278 133 266 269 208 355 312 22 241 156 142 140 131 125 131 131 130 132 134 140 141 154 158 159 160 169 175 180 188 188 178 182 171 178 205 175 148 156 169 167 156 147 152 157 161 164 165 157 148 148 129 127 137 144 144 142 151 180 208 162 151 159 164 202 250 212 117 126 126 122 134 174 207 211 213 219 209 189 187 177 224 217 207 179 121 107 76 62 73
296 322 191 330 357 315 273 280 233 218 247 163 80 290 265 259 122 145 132 136 133 127 134 140 141 141 145 150 153 151 158 165 177 185 176 185 186 188 180 182 182 178 176 164 146 163 161 162 150 143 154 163 172 155 146 148 153 134 129 134 137 135 148 147 147 152 165 178 173 177 172 185 201 223 140 121 99 139 177 175 201 312 231 213 197 163 197 138 182 185 182 117 135 113 94 88 86
337 273 27 320 358 271 244 206 274 288 203 168 103 233 268 258 126 160 153 146 147 146 155 151 145 144 149 153 158 162 175 182 186 182 182 183 183 184 187 172 183 184 163 159 170 146 143 151 147 148 160 166 163 159 151 149 147 141 143 149 133 136 148 151 137 135 165 181 194 203 177 184 203 211 179 136 145 168 211 206 164 191 206 196 183 179 166 71 117 108 123 134 92 99 95 97 95
299 20 315 330 164 273 286 262 219 226 289 128 131 236 243 261 174 171 156 152 147 148 154 145 144 149 156 163 163 165 178 190 197 185 183 178 175 188 193 177 194 179 181 174 145 130 130 139 148 144 155 153 152 163 158 152 151 148 154 154 116 120 136 142 145 153 162 173 196 212 190 182 194 200 171 148 178 173 203 207 193 198 200 190 179 150 130 126 102 75 59 141 118 114 111 77 82
345 112 265 284 314 270 345 275 221 213 217 180 174 227 325 299 207 169 156 155 149 144 152 149 150 154 160 167 167 170 170 190 201 191 188 162 177 176 158 184 214 188 168 155 140 128 119 118 131 138 140 136 134 135 126 129 141 146 147 120 112 103 109 109 105 121 142 159 199 246 239 208 193 189 174 186 178 192 205 203 207 199 189 173 147 124 116 147 128 94 57 126 138 133 112 109 87
309 6 235 213 237 295 294 292 276 238 181 234 221 215 227 269 118 147 149 152 151 149 157 154 155 160 166 166 172 173 178 180 193 190 172 159 165 160 175 180 167 157 152 144 137 135 135 140 132 132 125 126 133 133 127 127 136 131 115 120 122 118 105 100 106 118 121 127 157 251 286 290 276 287 224 204 177 183 199 189 196 195 174 141 117 111 116 128 116 115 97 70 114 123 121 126 121
233 316 336 316 274 217 243 277 279 165 205 192 215 215 199 290 140 153 165 162 147 158 163 161 161 161 164 173 176 177 180 186 197 175 156 159 169 160 168 155 156 138 135 131 125 127 129 126 124 127 124 123 119 121 116 106 97 80 93 118 112 104 97 79 65 88 128 146 169 202 262 305 313 321 285 243 216 193 168 171 174 170 138 121 121 109 104 106 108 91 114 90 60 79 130 140 141
229 211 213 198 276 284 250 251 260 207 165 191 191 203 198 235 138 130 158 172 163 161 150 150 158 164 163 167 171 173 187 204 203 159 158 166 169 145 151 157 156 135 130 126 127 128 125 125 127 122 122 122 121 117 120 109 106 124 119 95 93 100 108 116 91 34 331 164 167 184 212 216 271 287 274 273 254 147 160 166 171 147 126 126 124 118 114 112 121 107 98 112 105 72 51 66 92
245 253 202 232 247 284 284 291 263 148 135 184 201 178 157 208 159 57 151 156 125 135 146 153 160 163 170 173 173 176 183 203 196 175 165 177 152 148 147 161 148 133 133 131 130 134 137 142 136 135 140 134 131 137 137 134 122 117 119 136 131 133 132 127 111 91 104 354 10 178 200 215 216 242 252 283 293 186 112 135 122 112 112 117 121 134 132 112 108 113 96 68 107 95 45 28 41
229 148 52 308 25 312 295 312 356 76 110 352 59 94 95 252 269 170 133 96 172 159 155 160 170 177 180 174 172 173 188 162 151 180 188 184 140 154 149 160 144 134 142 136 137 141 138 136 134 141 138 136 142 152 153 138 145 154 151 162 143 138 134 131 127 114 119 102 91 77 0 249 215 208 194 187 226 165 165 135 95 109 108 113 119 121 115 113 116 109 113 69 27 95 37 353 19
1 243 241 328 306 250 291 318 10 354 82 254 314 146 186 213 226 142 163 165 191 180 167 173 171 179 177 174 170 165 165 169 160 194 192 189 137 152 156 158 149 141 148 140 138 133 133 134 140 145 151 150 162 160 143 142 119 135 137 153 141 119 72 121 119 112 100 94 77 73 69 64 79 201 197 176 200 216 183 140 164 138 137 135 131 138 133 93 61 134 140 136 103 63 116 10 15
217 345 35 266 245 33 307 313 356 9 95 195 186 160 264 272 285 233 212 168 184 186 182 172 172 171 175 176 171 171 170 166 176 186 184 184 142 162 161 158 152 145 142 140 141 139 139 141 148 154 160 152 151 156 121 104 111 116 111 122 99 113 146 122 87 78 66 61 39 25 51 48 60 50 67 136 49 315 246 179 133 119 134 140 144 149 158 157 150 144 134 148 136 117 94 356 348
307 173 213 205 142 225 199 274 331 332 19 103 72 32 332 8 42 5 337 222 133 190 172 205 215 189 180 172 167 172 172 173 173 176 179 178 162 175 171 160 148 149 150 154 150 145 148 155 161 164 160 151 154 137 127 121 109 100 95 77 88 79 57 70 84 66 63 76 65 51 40 63 65 52 47 43 55 56 348 10 68 116 127 107 117 127 139 154 135 147 144 132 123 137 128 127 0
320 254 198 217 177 182 286 320 23 21 341 343 104 18 309 300 318 242 301 92 169 191 179 199 202 192 166 173 181 183 173 171 171 177 180 183 169 156 156 159 155 155 159 164 156 148 149 158 161 155 135 142 143 144 144 134 132 130 123 119 115 107 108 111 130 146 118 112 116 96 58 69 89 79 54 49 49 73 71 29 43 55 65 91 126 134 129 118 136 148 152 138 117 126 138 111 107
87 273 187 215 187 190 232 266 78 10 156 281 85 160 261 324 325 312 335 142 192 207 212 206 190 186 186 195 181 180 173 168 181 175 170 172 172 157 165 168 166 161 166 160 159 154 154 157 165 152 150 150 146 152 152 134 132 135 136 139 140 141 136 162 131 143 132 132 106 88 90 71 81 84 63 57 59 58 62 54 65 65 65 85 80 100 125 152 141 142 124 122 140 131 124 123 152
233 239 172 192 123 113 85 127 154 228 238 307 27 111 161 302 295 277 285 95 177 197 221 234 213 192 195 195 192 186 170 165 165 180 186 184 177 169 175 174 171 169 160 160 159 158 160 162 165 154 150 152 156 155 150 140 133 128 120 117 127 136 146 152 166 183 143 117 97 103 92 78 74 81 80 61 62 67 78 73 70 70 73 70 82 72 89 92 87 60 67 91 89 91 119 137 164
213 251 193 250 121 170 144 110 143 214 313 290 316 17 66 274 268 323 353 11 332 200 205 210 201 196 194 196 189 185 174 174 177 178 181 179 184 185 164 172 172 153 160 168 170 172 168 165 161 149 151 156 160 151 140 132 129 132 131 130 121 108 127 144 162 160 119 113 107 103 95 91 75 67 72 79 69 76 83 87 76 76 75 72 81 81 75 80 90 90 79 75 83 66 82 107 108
275 234 255 241 201 135 113 111 75 353 62 289 278 313 134 288 279 324 339 98 304 254 244 228 210 192 188 194 193 183 176 175 172 175 178 185 185 181 179 159 157 177 173 172 167 160 160 157 153 147 151 160 158 148 139 141 136 132 133 141 140 139 135 141 154 143 133 132 122 118 105 92 89 76 70 78 82 83 94 92 86 87 93 94 88 93 89 82 82 85 92 104 102 89 72 87 106
240 10 277 320 22 12 33 62 90 66 32 256 234 312 137 289 267 238 10 270 227 110 38 357 178 176 180 181 161 164 161 162 174 170 151 133 125 120 113 157 163 142 145 149 153 156 152 157 155 153 159 148 146 150 148 150 146 142 144 147 146 146 153 154 147 144 138 127 132 132 120 117 102 106 97 81 88 92 91 101 108 107 104 103 99 91 93 104 101 101 99 89 90 101 100 98 88
142 62 126 49 339 8 27 347 43 112 277 260 266 169 123 141 292 300 247 298 303 234 144 184 159 145 140 144 141 131 127 139 126 117 116 130 123 120 118 126 152 160 138 129 140 152 159 157 152 137 116 125 111 124 176 151 144 144 139 144 149 151 158 163 165 165 170 157 152 145 136 118 112 106 102 100 88 95 98 90 94 96 103 104 102 112 109 105 107 100 86 86 89 90 96 89 86
76 70 56 121 254 33 339 5 328 153 172 235 291 329 28 233 216 244 297 308 297 318 152 160 127 124 122 118 117 120 119 109 108 111 117 123 141 147 155 152 141 164 166 158 159 156 142 143 140 124 115 122 127 147 211 154 143 141 143 146 149 155 163 166 168 162 172 162 160 149 145 140 136 114 122 114 127 112 113 108 109 115 109 115 116 102 103 99 92 85 87 83 83 80 86 93 88
103 181 144 85 86 62 225 274 214 329 299 265 233 189 220 252 297 235 248 291 271 135 121 119 110 117 112 107 113 116 110 106 105 106 106 109 126 157 170 171 171 160 151 141 109 84 84 105 123 129 143 156 163 162 191 152 141 139 140 141 153 160 165 167 168 166 176 172 168 164 160 155 152 153 153 151 163 132 115 126 121 121 124 120 116 117 111 106 102 98 93 87 85 95 84 82 93
199 160 148 180 141 159 204 193 198 213 207 278 298 56 237 80 245 232 247 304 82 97 84 90 95 94 93 91 88 89 85 76 83 83 87 97 104 108 114 153 159 156 134 120 125 127 122 119 120 115 89 53 45 36 355 135 152 139 135 133 149 170 168 168 168 172 172 171 180 169 169 159 151 166 161 169 151 134 137 124 122 122 130 128 121 112 105 96 92 87 90 96 89 85 83 86 80
274 140 87 78 229 140 182 201 147 208 159 2 321 210 175 152 248 296 318 35 103 99 101 103 93 92 87 79 77 75 70 69 67 77 73 74 81 87 94 93 132 143 141 145 137 145 142 136 131 127 132 142 164 178 186 180 178 146 137 141 149 179 192 164 161 173 183 175 179 177 178 171 166 163 169 146 163 142 141 124 110 118 115 112 119 123 123 118 113 108 102 99 94 98 93 86 93
267 50 315 228 178 117 90 21 316 102 54 254 206 328 324 303 337 18 58 85 106 105 117 116 116 112 106 106 105 101 93 78 77 82 85 88 75 62 72 103 117 133 140 155 164 163 152 153 165 170 170 173 177 182 179 172 163 138 148 155 157 176 199 178 173 182 183 180 182 193 181 182 168 166 167 161 158 156 149 143 136 131 108 110 113 126 127 127 127 122 121 114 120 121 114 119 106
64 75 249 99 71 113 127 186 344 69 131 258 40 207 317 39 262 348 30 358 100 102 119 124 124 124 120 131 133 128 119 113 109 101 100 106 117 121 117 114 137 149 153 157 171 175 171 176 181 162 161 165 173 173 173 160 166 151 150 157 163 175 192 197 176 178 184 177 187 196 192 175 184 177 166 167 158 155 151 146 143 149 143 119 125 133 136 138 130 133 141 145 157 138 118 121 128
151 191 192 90 264 324 322 89 270 94 235 254 305 116 86 150 267 332 342 6 306 87 144 133 134 133 135 141 142 135 129 121 113 106 102 94 86 85 89 101 120 153 165 169 171 175 180 191 189 173 170 168 169 169 165 152 178 169 162 164 167 175 189 201 187 175 173 184 187 189 188 193 185 175 159 154 154 150 147 145 145 150 147 134 129 137 135 135 131 127 131 136 156 139 132 141 162
7 119 28 312 99 169 124 194 173 117 237 80 285 55 172 275 45 316 297 315 236 154 132 71 94 129 138 139 132 120 104 99 92 88 85 83 78 76 88 116 143 166 185 203 190 87 147 184 178 179 174 164 162 169 167 169 178 175 177 172 166 182 190 199 193 176 177 188 188 186 190 181 192 184 175 167 164 163 158 157 161 157 162 150 140 151 145 144 140 145 144 144 182 117 116 141 179
336 19 339 4 46 210 110 18 101 155 164 162 186 18 291 285 236 290 291 336 62 125 104 76 92 73 67 92 110 107 109 108 107 103 97 91 87 81 79 88 114 116 126 164 145 134 127 137 172 176 177 180 180 177 177 174 179 193 181 176 181 180 191 198 196 183 180 190 189 187 187 189 175 192 181 176 171 166 162 162 161 166 169 173 159 162 149 147 150 155 167 164 168 144 144 178 157
220 199 233 186 134 93 114 242 346 94 94 192 105 207 259 274 282 262 256 140 112 111 102 100 111 135 141 138 136 134 127 123 111 106 104 100 95 93 85 85 94 101 121 180 148 137 158 187 196 178 188 193 185 194 195 188 193 195 190 175 183 190 193 202 196 190 188 187 190 187 187 175 184 190 183 182 179 171 167 163 165 172 177 178 171 171 162 153 156 161 184 182 167 163 168 189 183